This demonstration page uses our WeatherBlox Daily Observations layout. Learn more.

Left ArrowRight Arrow

44.8408, -93.29828

Hourly Observations for September 20, 2022

Temp ( °F °C ) Dew Point ( °F °C ) Humidity (%) Winds ( mph kmh ) Pressure ( in mb ) Visibility ( mi km ) Precip ( " mm )
12:53 am 00:53 Mostly Cloudy 70 21.1 56 13.3 61 61 SE 7 11 29.83 1010 10 16 0.00 0.00
1:53 am 01:53 Mostly Cloudy 69 20.6 57 13.9 65 65 SSE 9 15 29.81 1010 10 16 0.00 0.00
2:53 am 02:53 Mostly Clear 67 19.4 58 14.4 73 73 SE 6 9 29.80 1009 10 16 0.00 0.00
3:53 am 03:53 Mostly Clear 66 18.9 58 14.4 75 75 SSE 3 6 29.77 1008 10 16 0.00 0.00
4:53 am 04:53 Mostly Clear 66 18.9 59 15 78 78 SE 5 7 29.77 1008 10 16 0.00 0.00
5:53 am 05:53 Mostly Clear 66 18.9 60 15.6 81 81 E 7 11 29.79 1009 10 16 0.00 0.00
6:53 am 06:53 Mostly Cloudy 67 19.4 61 16.1 81 81 SE 9 15 29.79 1009 10 16 0.00 0.00
7:53 am 07:53 Mostly Cloudy 67 19.4 62 16.7 84 84 ESE 9 15 29.80 1009 10 16 0.00 0.00
8:17 am 08:17 Cloudy 68 20 63 17.2 84 84 ESE 12 19 29.80 1009 10 16 0.00 0.00
8:53 am 08:53 Cloudy 70 21.1 64 17.8 81 81 ESE 8 13 29.80 1009 10 16 0.00 0.00
9:53 am 09:53 Cloudy 73 22.8 65 18.3 76 76 ESE 6 9 29.81 1009 10 16 0.00 0.00
10:53 am 10:53 Partly Cloudy 77 25 67 19.4 71 71 ESE 9 15 29.79 1009 10 16 0.00 0.00
11:53 am 11:53 Mostly Sunny 80 26.7 68 20 67 67 ESE 9 15 29.78 1009 10 16 0.00 0.00
12:53 pm 12:53 Sunny 84 28.9 69 20.6 61 61 SSE 8 13 29.77 1008 10 16 0.00 0.00
1:53 pm 13:53 Sunny 86 30 69 20.6 57 57 SSE 8 13 29.75 1008 10 16 0.00 0.00
2:53 pm 14:53 Mostly Sunny 89 31.7 69 20.6 52 52 S 8 13 29.73 1007 10 16 0.00 0.00
3:53 pm 15:53 Mostly Sunny 90 32.2 69 20.6 50 50 S 6 9 29.72 1006 10 16 0.00 0.00
4:53 pm 16:53 Partly Cloudy 91 32.8 68 20 47 47 SSW 8 13 29.72 1006 10 16 0.00 0.00
5:53 pm 17:53 Mostly Cloudy 90 32.2 69 20.6 50 50 N 8 13 29.72 1007 10 16 0.00 0.00
6:53 pm 18:53 Partly Cloudy 80 26.7 70 21.1 71 71 NNE 14 22 29.75 1007 10 16 0.00 0.00
7:53 pm 19:53 Partly Cloudy 79 26.1 69 20.6 72 72 VRB 5 7 29.74 1007 10 16 0.00 0.00
8:02 pm 20:02 Partly Cloudy with Thunderstorms 79 26.1 69 20.6 72 72 Calm 29.70 1006 10 16 0.00 0.00
8:40 pm 20:40 Mostly Cloudy with Nearby Thunderstorms 79 26.1 70 21.1 74 74 N 13 20 29.75 1007 10 16 0.00 0.00
8:53 pm 20:53 Mostly Cloudy 79 26.1 69 20.6 72 72 N 12 19 29.78 1008 10 16 0.00 0.00
9:12 pm 21:12 Mostly Cloudy with Nearby Thunderstorms 78 25.6 70 21.1 76 76 N 7 11 29.75 1007 10 16 0.00 0.00
9:27 pm 21:27 Mostly Cloudy 78 25.6 70 21.1 76 76 N 12 19 29.76 1008 10 16 0.00 0.00
9:53 pm 21:53 Mostly Cloudy 77 25 70 21.1 79 79 NNE 10 17 29.79 1009 10 16 0.00 0.00
10:53 pm 22:53 Mostly Cloudy 76 24.4 68 20 77 77 N 13 20 29.81 1010 10 16 0.00 0.00
11:53 pm 23:53 Mostly Clear 73 22.8 58 14.4 59 59 NNW 15 24 29.84 1010 10 16 0.00 0.00

Powered by AerisWeather